Temp
5 3 5 5 5 5 6 6 6 7 8 6 7 7 7 7 7 7 7 6 5 5 5 5 5 4 4 3 3 3 3 2 2 2 2 2 2 2 2 2 2 3 3 3
3 3 5 5 5 5 5 5 5 5 6 6 6 7 6 6 5 5 5 5 4 4 4 4 5 4 4 3 2 2 2 2 1 1 1 1 1 1 1 2 2 2 3 3
3 4 4 5 5 4 4 4 4 4 4 4 5 5 6 6 6 6 5 4 3 3 2 3 4 3 2 2 2 2 1 1 0 0 0 0 0 0 0 1 1 1 2 2
2 3 4 4 4 4 3 4 3 3 3 3 3 2 4 6 5 6 6 4 2 2 1 1 3 2 2 2 1 1 0 -0 -1 -1 -1 -0 -0 -0 -0 -0 -0 -0 0 1
3 3 3 3 3 3 3 2 3 2 2 2 2 3 4 4 4 5 5 4 2 2 1 2 2 1 1 1 1 1 -0 -1 -1 -1 -1 -1 -1 -1 -1 -2 -2 -2 -2 -1
2 3 2 2 2 2 2 2 2 2 2 0 3 2 3 3 3 4 3 3 2 2 2 2 1 1 1 0 0 0 -0 -1 -2 -2 -2 -2 -2 -2 -2 -2 -2 -2 -2 -2
2 2 3 3 2 2 1 1 1 -0 -1 -1 3 3 1 2 2 2 3 3 2 2 1 1 1 1 0 -0 -0 -1 -1 -2 -2 -2 -2 -3 -2 -3 -2 -2 -2 -2 -3 -2
1 2 3 3 3 2 2 1 1 0 0 1 3 3 2 2 1 1 1 1 1 1 0 -0 -0 -1 -1 -1 -1 -2 -2 -2 -2 -3 -3 -3 -3 -3 -3 -3 -3 -3 -3 -3
1 2 2 2 2 2 2 2 2 2 2 0 2 2 -0 -1 -0 -0 -1 -1 -2 -1 -0 -0 -1 -1 -1 -1 -2 -2 -2 -3 -3 -4 -4 -4 -3 -3 -3 -3 -3 -3 -3 -4
1 1 2 2 1 1 1 1 1 1 -0 -1 1 2 1 0 -0 -1 -1 -1 -2 -1 -1 -1 -1 -1 -1 -2 -3 -3 -3 -3 -4 -4 -4 -4 -4 -4 -4 -4 -4 -4 -4 -4
-0 -0 -0 0 1 1 1 1 1 1 1 -3 -3 -1 -0 -0 -1 -1 -1 -1 -1 -1 -1 -1 -2 -2 -2 -2 -3 -3 -4 -4 -5 -5 -5 -4 -4 -4 -4 -4 -4 -4 -4 -4
-1 -1 -1 -1 -1 0 0 0 1 0 0 -0 -0 -1 -0 -0 -1 -1 -1 -1 -2 -2 -2 -2 -2 -3 -3 -3 -4 -4 -5 -5 -6 -6 -6 -5 -5 -5 -5 -5 -5 -5 -5 -5
-1 -2 -2 -1 -1 0 -1 -0 -0 -1 -0 -1 -4 -2 -1 -1 -2 -1 -1 -1 -1 -2 -2 -2 -3 -3 -3 -4 -5 -5 -5 -6 -7 -7 -6 -6 -5 -5 -5 -5 -5 -5 -5 -5
-3 -3 -3 -3 -2 -3 -3 -2 -2 -2 -3 -2 -2 -2 -2 -1 -2 -1 -1 -1 -2 -2 -2 -3 -3 -3 -4 -5 -5 -5 -5 -7 -7 -7 -7 -6 -6 -6 -6 -6 -6 -6 -6 -6
-4 -4 -4 -3 -3 -3 -3 -2 -1 -3 -2 -4 -2 -3 -3 -2 -2 -1 -2 -2 -2 -2 -3 -3 -4 -4 -4 -5 -5 -6 -6 -7 -8 -8 -7 -6 -6 -6 -6 -7 -7 -7 -7 -6
-4 -5 -5 -5 -4 -4 -4 -4 -3 -3 -3 -3 -3 -3 -2 -2 -2 -2 -2 -3 -3 -3 -3 -3 -4 -4 -5 -5 -6 -6 -7 -7 -8 -7 -7 -7 -7 -7 -7 -7 -7 -7 -7 -7
-5 -5 -5 -5 -5 -5 -4 -4 -3 -3 -3 -2 -3 -2 -2 -2 -2 -2 -2 -3 -3 -3 -3 -3 -4 -5 -5 -6 -6 -7 -7 -8 -7 -7 -7 -7 -7 -7 -7 -8 -8 -8 -8 -8
-5 -5 -6 -6 -6 -6 -4 -3 -3 -3 -3 -2 -2 -2 -2 -2 -2 -3 -3 -3 -3 -3 -4 -4 -5 -5 -6 -6 -7 -7 -8 -8 -7 -7 -7 -8 -8 -8 -8 -8 -8 -8 -8 -8
-4 -6 -6 -6 -5 -5 -4 -2 -2 -3 -3 -3 -3 -4 -3 -2 -3 -3 -3 -4 -4 -3 -4 -5 -5 -5 -6 -7 -7 -7 -8 -8 -8 -8 -8 -8 -8 -9 -9 -9 -9 -9 -8 -8
-4 -6 -7 -6 -6 -5 -3 -3 -3 -3 -3 -3 -4 -3 -3 -3 -3 -3 -3 -4 -4 -4 -4 -5 -5 -5 -6 -7 -7 -8 -8 -8 -8 -8 -8 -9 -9 -9 -9 -9 -9 -9 -9 -9
-4 -5 -6 -6 -6 -5 -4 -3 -3 -4 -3 -4 -3 -3 -3 -3 -3 -4 -4 -4 -4 -4 -5 -5 -5 -6 -7 -7 -7 -8 -8 -8 -8 -9 -9 -9 -9 -9 -10 -10 -10 -10 -10 -10
-4 -5 -5 -6 -6 -5 -4 -3 -4 -3 -3 -4 -4 -3 -4 -4 -4 -4 -4 -4 -4 -5 -5 -6 -6 -6 -7 -7 -8 -8 -9 -9 -9 -9 -9 -9 -10 -10 -10 -10 -10 -10 -10 -10
-5 -4 -4 -5 -4 -3 -3 -3 -3 -5 -4 -4 -4 -4 -4 -4 -4 -4 -4 -5 -5 -5 -6 -6 -6 -7 -7 -8 -8 -9 -9 -9 -9 -9 -10 -10 -10 -10 -10 -10 -11 -10 -10 -10
-5 -5 -5 -5 -4 -4 -4 -4 -4 -4 -5 -4 -4 -4 -4 -4 -4 -5 -5 -5 -5 -5 -6 -6 -7 -8 -8 -8 -8 -9 -9 -9 -9 -10 -10 -10 -10 -11 -11 -11 -11 -11 -11 -11
-5 -6 -5 -5 -5 -5 -4 -4 -4 -5 -6 -5 -5 -5 -5 -4 -5 -5 -5 -6 -6 -6 -6 -6 -7 -8 -8 -8 -8 -9 -10 -10 -10 -10 -10 -11 -11 -11 -11 -11 -11 -11 -11 -11
-5 -5 -5 -5 -5 -5 -5 -5 -4 -4 -5 -5 -5 -5 -5 -5 -5 -5 -6 -6 -6 -6 -7 -7 -8 -8 -9 -9 -9 -10 -10 -10 -10 -10 -11 -11 -11 -11 -11 -11 -11 -12 -12 -12
Height
3115 3115 3113 3114 3117 3118 3115 3113 3111 3111 3110 3111 3108 3113 3114 3108 3108 3106 3106 3105 3105 3101 3101 3106 3108 3106 3104 3103 3100 3099 3099 3097 3095 3093 3091 3089 3086 3083 3080 3076 3073 3069 3065 3061
3111 3109 3112 3111 3112 3111 3110 3108 3108 3106 3106 3106 3102 3096 3103 3106 3102 3101 3101 3096 3092 3091 3095 3099 3100 3101 3099 3098 3096 3095 3094 3092 3089 3087 3085 3083 3080 3077 3074 3070 3065 3061 3057 3053
3106 3105 3107 3109 3108 3107 3106 3105 3105 3105 3102 3102 3103 3092 3094 3097 3098 3099 3097 3093 3088 3089 3091 3094 3096 3094 3094 3093 3091 3089 3089 3086 3084 3081 3079 3076 3074 3071 3067 3063 3058 3053 3048 3043
3101 3102 3102 3100 3101 3102 3101 3104 3102 3100 3100 3099 3102 3093 3090 3090 3089 3091 3089 3086 3083 3084 3085 3088 3093 3092 3091 3088 3085 3083 3082 3079 3080 3076 3074 3072 3070 3066 3061 3056 3051 3046 3040 3035
3096 3097 3099 3098 3097 3100 3100 3099 3099 3098 3097 3096 3095 3099 3079 3084 3083 3084 3080 3081 3082 3084 3085 3086 3088 3087 3085 3085 3082 3079 3078 3076 3075 3073 3070 3067 3065 3062 3057 3053 3048 3042 3036 3030
3091 3093 3093 3094 3094 3095 3095 3096 3095 3094 3095 3092 3087 3094 3081 3082 3079 3076 3077 3079 3080 3085 3086 3085 3083 3080 3079 3078 3076 3075 3074 3073 3071 3069 3066 3064 3061 3058 3054 3050 3045 3040 3034 3028
3090 3088 3089 3090 3090 3091 3092 3094 3093 3094 3092 3087 3086 3087 3082 3081 3079 3078 3078 3081 3082 3083 3083 3081 3079 3076 3075 3074 3072 3071 3070 3069 3068 3066 3063 3060 3058 3055 3051 3048 3044 3038 3032 3026
3086 3085 3088 3086 3083 3085 3088 3090 3091 3089 3087 3085 3083 3083 3079 3079 3079 3077 3077 3079 3081 3079 3079 3076 3075 3072 3070 3070 3070 3068 3067 3066 3065 3063 3060 3058 3055 3052 3049 3045 3041 3036 3030 3024
3084 3082 3083 3085 3083 3084 3085 3085 3087 3085 3083 3079 3077 3080 3078 3077 3079 3078 3077 3078 3079 3075 3073 3071 3069 3067 3067 3068 3067 3066 3063 3062 3061 3059 3057 3055 3052 3049 3045 3042 3038 3033 3029 3023
3081 3079 3080 3080 3081 3082 3081 3082 3081 3081 3083 3079 3073 3074 3073 3074 3074 3074 3075 3073 3071 3071 3071 3069 3067 3065 3063 3064 3062 3061 3059 3057 3057 3055 3053 3051 3048 3045 3042 3039 3036 3031 3027 3022
3077 3078 3076 3077 3077 3078 3079 3077 3077 3077 3079 3078 3077 3073 3071 3070 3071 3072 3071 3071 3068 3068 3067 3064 3063 3061 3059 3059 3058 3055 3054 3053 3052 3052 3050 3048 3045 3042 3040 3037 3033 3029 3025 3021
3076 3076 3071 3072 3072 3072 3071 3072 3073 3072 3073 3070 3071 3064 3068 3066 3067 3067 3066 3066 3064 3062 3060 3058 3058 3056 3055 3053 3051 3050 3048 3049 3048 3048 3046 3044 3042 3039 3037 3034 3031 3028 3024 3021
3072 3071 3070 3067 3069 3067 3067 3067 3067 3067 3065 3062 3066 3062 3063 3062 3062 3061 3060 3057 3056 3056 3054 3052 3052 3050 3049 3047 3046 3045 3044 3043 3044 3043 3043 3041 3039 3036 3034 3032 3029 3026 3023 3019
3068 3068 3068 3066 3066 3066 3063 3061 3062 3063 3063 3060 3055 3056 3058 3059 3056 3055 3053 3050 3050 3050 3048 3046 3045 3044 3043 3042 3041 3041 3040 3040 3041 3040 3040 3038 3036 3034 3031 3029 3027 3025 3021 3018
3064 3062 3064 3061 3061 3062 3058 3056 3056 3057 3057 3058 3047 3049 3051 3052 3051 3047 3046 3046 3045 3044 3043 3040 3039 3038 3038 3037 3037 3037 3037 3037 3037 3037 3037 3035 3033 3031 3029 3027 3025 3023 3020 3017
3060 3058 3057 3052 3055 3055 3050 3051 3050 3049 3047 3047 3044 3039 3043 3043 3041 3040 3040 3038 3040 3038 3036 3035 3034 3033 3033 3033 3033 3033 3033 3034 3034 3034 3034 3033 3031 3029 3028 3026 3024 3022 3019 3017
3054 3053 3053 3046 3051 3049 3041 3041 3041 3040 3040 3041 3038 3035 3037 3036 3035 3033 3035 3032 3032 3031 3030 3029 3029 3029 3029 3029 3029 3029 3030 3031 3032 3032 3031 3031 3029 3028 3026 3025 3023 3021 3019 3016
3047 3049 3051 3046 3048 3043 3034 3035 3035 3034 3035 3034 3033 3031 3031 3030 3028 3027 3028 3027 3026 3025 3025 3025 3025 3024 3024 3025 3025 3026 3027 3028 3029 3029 3029 3028 3028 3027 3025 3024 3022 3020 3019 3017
3038 3043 3045 3044 3042 3035 3033 3032 3030 3028 3029 3027 3026 3027 3027 3025 3024 3024 3025 3024 3023 3022 3021 3021 3021 3021 3021 3022 3023 3024 3025 3026 3026 3027 3027 3027 3026 3025 3024 3023 3022 3020 3018 3016
3033 3036 3040 3039 3037 3032 3027 3027 3027 3024 3023 3023 3023 3025 3025 3023 3022 3022 3021 3020 3020 3019 3018 3018 3018 3018 3019 3019 3021 3022 3023 3023 3024 3025 3025 3025 3024 3024 3023 3022 3021 3019 3017 3016
3031 3029 3027 3029 3032 3024 3023 3024 3024 3024 3026 3023 3023 3021 3021 3021 3020 3019 3018 3017 3017 3016 3015 3015 3015 3016 3017 3018 3019 3020 3021 3021 3022 3022 3022 3023 3023 3022 3022 3021 3020 3019 3017 3016
3025 3026 3019 3026 3027 3021 3017 3018 3021 3020 3019 3019 3019 3018 3018 3017 3017 3016 3015 3013 3013 3013 3012 3012 3013 3014 3015 3015 3016 3017 3018 3019 3020 3020 3021 3021 3021 3021 3020 3019 3019 3017 3016 3015
3020 3019 3018 3018 3016 3015 3015 3015 3015 3015 3016 3015 3014 3015 3014 3014 3014 3013 3011 3010 3009 3010 3010 3010 3011 3012 3011 3012 3013 3014 3015 3016 3017 3018 3018 3019 3019 3019 3018 3017 3016 3015 3014 3012
3015 3014 3010 3013 3011 3010 3009 3010 3010 3012 3012 3011 3010 3011 3011 3011 3010 3009 3007 3006 3006 3007 3008 3008 3009 3009 3009 3009 3010 3011 3012 3013 3014 3015 3015 3016 3016 3016 3016 3014 3013 3012 3011 3008
3013 3009 3007 3005 2997 3003 3003 3003 3007 3007 3008 3008 3006 3006 3006 3007 3006 3005 3003 3003 3003 3003 3004 3005 3006 3006 3005 3006 3007 3008 3009 3010 3011 3012 3013 3013 3013 3012 3012 3011 3009 3008 3006 3004
3007 3006 3003 3001 3001 3001 3002 3002 3003 3003 3004 3004 3003 3002 3001 3002 3002 3001 3000 3000 3000 3001 3001 3002 3002 3003 3003 3003 3004 3005 3005 3006 3007 3008 3008 3008 3008 3008 3007 3006 3005 3003 3001 2999
Wind_Speed
14 17 17 11 10 20 17 18 21 24 23 23 20 23 22 23 22 26 27 30 32 33 35 27 23 21 25 27 31 32 31 32 33 33 32 32 31 30 30 31 34 36 38 40
14 21 18 18 18 22 17 15 19 23 26 24 28 31 24 17 19 23 24 30 36 37 32 26 23 19 25 26 28 31 31 31 30 29 28 27 25 26 29 31 34 36 38 39
19 18 10 10 19 19 21 20 21 23 24 25 30 39 34 30 26 26 26 31 35 34 28 24 24 24 23 24 25 27 27 27 25 23 21 22 25 27 28 30 31 33 34 36
18 19 22 24 20 18 20 19 19 15 17 9 9 20 34 33 28 27 26 33 34 31 30 29 24 23 23 23 25 27 23 22 18 18 20 22 25 26 27 28 29 31 33 34
17 6 10 18 20 10 12 12 16 17 17 23 18 12 30 25 22 27 21 30 32 32 28 29 25 22 20 22 22 21 18 18 17 18 20 23 23 23 24 25 26 28 31 34
26 19 14 14 14 16 17 18 17 18 18 11 26 17 25 16 4 11 21 30 28 23 22 17 22 27 22 18 19 22 18 17 18 19 21 21 20 20 21 22 22 24 27 31
12 15 12 15 21 17 13 12 4 3 3 7 13 13 5 7 3 7 13 18 18 17 18 22 24 20 19 21 20 14 17 17 18 19 20 19 19 20 21 21 21 21 23 27
14 13 13 12 24 17 8 14 10 4 3 11 23 5 6 9 5 12 15 13 13 21 21 20 20 19 18 15 13 15 17 18 19 18 18 17 19 19 20 21 21 21 21 24
12 10 4 6 4 13 11 15 14 18 20 13 14 11 7 5 3 7 6 6 11 16 20 21 17 15 14 12 16 18 18 19 19 17 17 19 20 20 20 21 21 22 21 21
11 15 20 18 12 13 17 16 14 13 3 5 10 11 5 9 7 7 8 3 8 10 14 16 18 18 20 16 17 16 18 18 18 18 18 20 20 19 20 19 20 20 20 20
11 13 22 20 20 15 16 19 18 23 14 1 4 6 8 7 14 16 8 6 10 16 24 26 20 20 22 23 21 18 17 19 18 18 18 18 18 18 18 17 17 17 17 18
9 9 19 20 21 23 22 23 20 12 12 17 17 27 20 18 7 10 13 21 25 20 23 20 18 21 23 25 24 20 20 17 17 16 17 19 18 18 17 16 15 15 15 16
17 10 8 13 11 6 16 16 14 14 18 23 4 11 18 17 17 23 22 25 26 26 23 23 20 22 21 22 25 25 19 17 16 15 14 16 17 16 16 14 14 15 14 14
16 19 17 15 13 20 25 24 22 21 16 20 27 31 26 21 18 25 28 31 29 29 24 20 20 20 18 18 17 16 15 14 15 11 12 14 14 14 14 14 13 13 13 14
15 20 25 34 30 29 34 35 35 33 34 30 42 37 32 28 27 34 31 25 26 21 20 18 18 17 17 16 16 16 13 14 12 10 12 12 13 12 12 12 12 12 13 13
19 18 19 30 27 29 35 31 31 31 30 32 33 34 24 21 27 24 23 25 18 16 14 12 14 16 15 15 14 12 12 10 7 10 10 10 10 10 11 11 11 11 12 13
23 23 21 27 22 22 24 29 31 32 27 29 34 28 26 21 25 27 19 14 16 15 14 14 13 12 12 11 10 9 8 7 8 7 7 7 7 8 10 10 10 10 10 10
32 28 22 21 17 11 22 10 14 22 21 25 29 31 23 17 15 11 13 14 14 13 12 10 8 8 8 7 6 6 6 6 6 6 7 6 7 8 7 8 8 9 9 9
28 27 18 13 16 23 32 20 16 16 23 19 23 15 12 12 8 10 9 7 10 10 8 8 7 6 5 4 5 5 5 6 6 6 6 6 6 6 6 7 7 8 8 8
9 22 27 19 6 4 3 6 18 21 17 8 2 10 15 9 8 8 7 10 11 9 7 7 6 5 4 4 4 5 6 7 7 8 8 7 5 5 6 6 6 5 6 8
12 25 38 35 17 19 21 12 11 4 9 7 8 11 8 8 7 7 10 12 10 9 7 6 6 4 4 4 5 5 8 8 8 7 7 7 6 7 6 6 6 7 8 8
23 14 15 24 13 14 19 9 11 9 8 8 9 9 9 7 7 10 12 12 10 7 7 6 6 4 6 5 5 7 8 8 9 9 10 10 9 8 7 7 7 8 9 10
12 19 16 16 11 11 12 12 9 5 8 8 12 13 9 8 10 12 13 12 10 8 7 7 7 6 6 6 6 7 8 10 11 11 11 11 10 9 9 9 9 10 11 13
18 17 22 19 23 24 23 22 15 11 13 15 16 14 12 10 11 13 14 12 11 8 8 8 6 6 6 6 8 7 9 10 10 10 11 11 12 11 11 12 13 14 15 16
28 26 20 21 18 19 15 3 6 10 11 17 15 13 14 13 12 14 12 11 10 8 8 7 5 5 6 7 7 5 8 9 10 10 11 11 13 13 14 13 16 16 18 19
11 12 21 22 4 5 7 7 10 5 5 7 12 13 15 15 14 13 10 10 8 8 7 7 6 6 6 7 6 5 7 9 10 11 12 13 15 15 17 17 18 20 21 23
Wind_Direction
271 277 269 275 277 290 281 275 277 272 263 293 291 296 293 304 280 275 279 273 261 257 269 280 293 290 286 281 278 279 282 284 287 290 292 294 296 297 296 296 296 296 295 293
260 254 268 279 263 275 286 298 303 281 282 297 290 278 276 267 298 291 273 262 255 256 262 272 286 283 293 297 289 285 286 287 289 292 295 298 298 299 300 301 300 299 297 295
257 254 249 247 273 278 279 290 297 297 291 276 284 276 278 272 258 276 283 256 247 252 259 260 281 294 302 300 295 291 290 290 292 295 300 306 310 312 312 309 307 305 303 301
255 274 249 264 270 263 275 286 280 293 299 306 298 295 287 291 285 263 276 233 226 232 240 254 283 294 301 297 296 293 295 294 299 302 307 311 313 316 318 320 322 321 318 315
239 235 266 265 267 255 272 275 276 285 301 301 296 254 290 298 292 284 264 220 219 229 239 267 280 295 294 298 302 297 302 298 299 304 312 318 321 325 328 332 333 332 331 329
242 235 232 245 252 245 260 274 280 274 270 274 282 241 284 320 300 231 204 200 206 228 258 282 294 296 304 305 299 298 293 294 300 307 314 317 321 327 332 334 337 338 339 339
266 264 268 264 256 255 269 262 312 305 203 229 310 325 215 236 238 210 231 228 239 256 270 274 289 297 308 305 298 294 295 299 301 309 310 312 315 325 330 332 333 338 346 351
275 292 267 282 254 236 250 241 215 253 273 297 303 269 262 236 248 202 206 239 264 279 289 296 302 309 305 300 295 297 297 300 301 305 305 308 311 313 321 329 335 341 347 355
270 259 213 10 213 210 235 266 272 290 300 272 273 269 256 219 145 177 203 252 293 302 306 315 324 314 293 283 296 298 299 301 302 300 302 308 309 311 315 321 329 337 342 350
262 280 248 265 276 262 271 293 285 278 301 277 274 297 292 260 286 327 298 287 250 271 280 302 310 301 284 274 285 294 296 298 298 296 302 307 308 312 317 322 328 334 340 347
295 268 268 271 264 274 281 271 272 256 253 181 316 281 256 290 295 303 279 271 288 285 295 303 307 290 286 280 281 288 294 295 293 294 302 304 309 312 316 321 327 333 341 345
230 279 282 272 269 249 263 271 279 295 274 251 252 267 279 284 275 292 277 291 295 282 291 295 297 286 286 283 284 291 289 284 286 289 299 307 310 310 313 318 326 332 340 342
247 250 295 289 288 277 263 272 277 300 300 293 286 284 286 289 287 303 296 292 290 292 289 291 287 291 289 284 282 288 276 278 282 295 299 303 306 309 314 320 327 335 336 348
246 243 248 245 257 296 295 281 280 292 308 304 280 280 284 279 299 300 292 291 283 286 293 286 281 283 279 285 290 282 279 279 283 288 295 302 305 309 314 322 329 332 341 349
269 260 257 260 269 270 272 276 278 281 277 279 280 282 284 282 287 286 279 285 289 287 287 283 273 273 271 275 277 275 272 274 281 283 290 299 308 315 319 325 329 334 339 343
247 267 269 273 278 276 279 283 279 273 277 278 284 284 284 291 275 269 284 285 290 300 293 284 276 272 267 272 270 265 267 277 285 287 296 305 313 319 323 326 334 339 343 347
236 245 264 278 280 291 281 269 273 277 278 279 271 287 301 274 271 283 280 297 295 296 298 292 276 269 267 264 257 259 264 262 265 286 301 309 316 323 326 334 342 350 350 353
258 258 260 275 290 270 278 305 290 283 284 285 272 283 264 281 287 307 308 301 298 297 298 294 280 260 255 251 250 261 254 255 269 280 294 299 309 318 329 340 346 351 355 2
249 248 245 250 247 267 279 288 294 274 282 289 269 286 277 292 289 275 296 306 310 312 309 282 277 272 266 254 252 244 240 253 262 276 279 286 300 315 328 333 342 348 352 1
246 243 235 240 244 265 243 303 306 302 275 281 204 262 277 266 288 311 315 306 312 312 296 288 286 282 269 255 255 242 244 245 265 272 277 281 294 299 305 318 328 338 358 4
265 229 226 236 245 262 270 280 294 269 274 215 263 292 256 298 289 297 304 299 297 295 289 287 279 267 253 266 261 245 247 253 258 260 267 264 274 284 296 308 318 328 338 352
271 251 214 225 238 258 269 258 238 261 274 259 278 307 314 285 289 305 304 298 295 297 280 272 266 251 255 266 264 251 251 249 251 258 259 262 265 278 285 292 302 315 322 326
272 255 235 210 251 245 252 254 267 276 280 276 287 301 298 287 301 301 303 290 288 281 263 261 257 244 261 271 267 248 253 253 257 258 255 255 264 274 282 286 292 301 311 317
287 277 249 241 241 250 251 246 235 243 264 274 282 281 283 284 297 299 298 282 280 271 257 253 246 252 265 276 276 257 254 254 257 256 254 258 268 274 278 285 292 300 305 310
296 300 300 301 271 242 267 166 276 257 249 276 277 286 274 285 294 299 289 273 274 265 265 265 262 280 283 281 283 263 255 255 253 254 257 261 273 275 276 278 286 294 299 304
294 282 282 283 293 263 294 299 295 306 270 296 278 274 285 293 297 293 278 267 266 270 275 284 290 290 284 278 284 273 257 253 253 256 258 265 275 277 282 287 288 294 298 300